Hourly Data Report for October 16, 2014

All times are specified in Local Standard Time (LST). Add 1 hour to adjust for Daylight Saving Time where and when it is observed.

BAKER LAKE A
NUNAVUT

64°17'56.000" N
96°04'40.000" W
18.60 m
2300503
71926
YBK

Download Data

Hourly Data (October 2014)
Hourly Data Report for October 16, 2014
Temp Definition
°C
Dew Point Temp Definition
°C
Rel Hum Definition
%
Wind Dir Definition
10's deg

Wind Spd Definition
km/h
Visibility Definition
km
Stn Press Definition
kPa
Hmdx Definition


Wind Chill Definition


Weather Definition


TIME
00:00 Legend Double Dagger -2.6 -6.8 73 36 22 24.1 101.76   -9 Mostly Cloudy
01:00 Legend Double Dagger -3.0 -5.3 84 33 20 24.1 101.81   -9 LegendNANA
02:00 Legend Double Dagger -3.3 -5.3 86 32 20 24.1 101.86   -9 LegendNANA
03:00 Legend Double Dagger -3.4 -5.3 87 32 22 24.1 101.92   -10 Cloudy
04:00 Legend Double Dagger -3.7 -5.4 88 33 24 24.1 101.97   -11 LegendNANA
05:00 Legend Double Dagger -3.6 -5.6 86 34 19 24.1 102.04   -10 LegendNANA
06:00 Legend Double Dagger -3.4 -7.4 74 34 22 24.1 102.10   -10 Cloudy
07:00 Legend Double Dagger -4.1 -6.3 85 33 17 32.2 102.16   -10 LegendNANA
08:00 Legend Double Dagger -4.2 -6.2 86 32 18 32.2 102.20   -10 LegendNANA
09:00 Legend Double Dagger -5.0 -7.0 86 32 20 32.2 102.24   -12 Mainly Clear
10:00 Legend Double Dagger -3.8 -7.1 78 32 22 32.2 102.25   -10 LegendNANA
11:00 Legend Double Dagger -3.7 -7.0 78 31 23 32.2 102.29   -10 LegendNANA
12:00 Legend Double Dagger -3.2 -6.2 80 31 17 32.2 102.31   -9 Mostly Cloudy
13:00 Legend Double Dagger -3.3 -8.4 68 32 18 32.2 102.35   -9 LegendNANA
14:00 Legend Double Dagger -2.4 -7.5 68 30 23 32.2 102.37   -9 Snow
15:00 Legend Double Dagger -2.8 -7.5 70 33 21 32.2 102.38   -9 Mostly Cloudy
16:00 Legend Double Dagger -2.8 -6.8 74 33 24 32.2 102.43   -9 LegendNANA
17:00 Legend Double Dagger -3.2 -6.5 78 33 19 32.2 102.47   -9 LegendNANA
18:00 Legend Double Dagger -3.7 -6.7 80 34 22 24.1 102.50   -10 Mostly Cloudy
19:00 Legend Double Dagger -4.0 -6.6 82 32 19 24.1 102.53   -10 LegendNANA
20:00 Legend Double Dagger -3.8 -6.1 84 34 22 24.1 102.55   -10 LegendNANA
21:00 Legend Double Dagger -3.8 -6.0 85 34 21 24.1 102.56   -10 Mostly Cloudy
22:00 Legend Double Dagger -3.9 -5.6 88 33 18 24.1 102.58   -10 LegendNANA
23:00 Legend Double Dagger -3.8 -5.4 89 31 17 24.1 102.62   -10 Snow

Notes on Data Quality.

Legend

  • E = Estimated
  • M = Missing
  • NA = Not Available
  • ‡ = Partner data that is not subject to review by the National Climate Archives
Date modified: